AirNav   $300 off a Bose A20 aviation headset
 
 1284 users online  

AL79 Bartlett Ranch Airport
Pike Road, Alabama, USA

GOING TO PIKE ROAD?


FAA INFORMATION EFFECTIVE 28 FEBRUARY 2019

Location

FAA Identifier: AL79
Lat/Long: 32-16-10.5110N / 086-05-55.8590W
32-16.175183N / 086-05.930983W
32.2695864 / -86.0988497
(estimated)
Elevation: 305 ft. / 93 m (estimated)
Variation: 00W (1985)
From city: 1 mile SE of PIKE ROAD, AL
Time zone: UTC -6 (UTC -5 during Daylight Saving Time)
Zip code: 36064

Airport Operations

Airport use: Private use. Permission required prior to landing
Activation date: 11/1987
Control tower: no
ARTCC: ATLANTA CENTER
FSS: ANNISTON FLIGHT SERVICE STATION
Attendance: UNATNDD
Wind indicator: yes
Segmented circle: no

Airport Communications

WX ASOS at MGM (15 nm W): PHONE 334-288-0445

Nearby radio navigation aids

VOR radial/distance  VOR name  Freq  Var
MGMr073/11.6MONTGOMERY VORTAC112.1003E
TGEr237/25.3TUSKEGEE VOR/DME117.3002E

 
NDB name  Hdg/Dist  Freq  Var  ID
BLOOD005/26.336504WTOI - --- ..

Airport Services

Fuel available: 100LL

Runway Information

Runway 18/36

Dimensions: 2500 x 200 ft. / 762 x 61 m
Surface: turf
RUNWAY 18  RUNWAY 36
Traffic pattern: leftleft
Obstructions: none80 ft. pline, 1320 ft. from runway

Airport Ownership and Management from official FAA records

Ownership: Privately-owned
Owner: H B BARTLETT
BARTLETT RANCH
PIKE ROAD, AL 36064
Phone 205-288-9554
Manager: H B BARTLETT
BARTLETT RANCH
PIKE ROAD, AL 36064
Phone 205-288-9554

Airport Operational Statistics

Aircraft based on the field: 5
Single engine airplanes: 5
    

Instrument Procedures

There are no published instrument procedures at AL79.

Some nearby airports with instrument procedures:

KMGM - Montgomery Regional Airport (Dannelly Field) (15 nm W)
KMXF - Maxwell Air Force Base (15 nm NW)
08A - Wetumpka Municipal Airport (19 nm NW)
1A9 - Prattville Airport - Grouby Field (23 nm NW)
06A - Moton Field Municipal Airport (24 nm NE)
 
Loc | Ops | Rwys | IFR | FBO | Links
Com | Nav | Svcs | Stats | Notes
Area around AL79 (Bartlett Ranch Airport)
 
Road maps at: MapQuest Bing Google
 
Aerial photo
No photo
 
Sectional chart

 
Airport distance calculator
Flying to Bartlett Ranch Airport? Find the distance to fly.

From to AL79

Sunrise and sunset
Times for 22-Mar-2019
 Local
(UTC-5)
 Zulu
(UTC)
Morning civil twilight06:2211:22
Sunrise06:4711:47
Sunset18:5623:56
Evening civil twilight19:2100:21

Current date and time
Zulu (UTC)  22-Mar-2019 14:27:45
Local (UTC-5)  22-Mar-2019 09:27:45
 
METAR
KMXF 
15nm NW 
221356Z AUTO 29004KT 10SM CLR 10/02 A3016 RMK AO2 SLP216 T00950019 $
KMGM 
15nm W 
221353Z 31006KT 10SM CLR 11/02 A3018 RMK AO2 SLP219 T01060017
K1A9 
23nm NW 
221415Z AUTO 34004KT 10SM CLR 09/01 A3018 RMK AO2 T00930010
KTOI 
26nm S 
221353Z AUTO 33007KT 10SM CLR 10/03 A3016 RMK AO2 SLP213 T01000033
TAF
KMXF 
15nm NW 
221100Z 2211/2317 33006KT 9999 SKC QNH3007INS BECMG 2223/2224 VRB06KT 9999 SKC QNH3011INS TX21/2221Z TN05/2212Z
KMGM 
15nm W 
221120Z 2212/2312 32003KT P6SM SKC FM221600 30009KT P6SM SKC FM230100 28003KT P6SM SKC
NOTAMs
Click for the latest NOTAMs
NOTAMs are issued by the DoD/FAA and will open in a separate window not controlled by AirNav.

 

 
 

Would you like to see your business listed on this page?

 If your business provides an interesting product or service to pilots, flight crews, aircraft, or users of the Bartlett Ranch Airport, you should consider listing it here.  To start the listing process, click on the button below
 
Add a business
 

Other Pages about Bartlett Ranch Airport

Update a link
 
Copyright © AirNav, LLC. All rights reserved. Privacy Policy  Contact